If you wish to contribute or participate in the discussions about articles you are invited to join SKYbrary as a registered user

 Actions

Angoon Seaplane Base

From SKYbrary Wiki

PAGN
Airport
ICAO: PAGN – IATA: AGN
Summary
Name Angoon Seaplane Base
Region North America
Territory Alaska US.gif
Location Angoon, Alaska
Serving Angoon
Type seaplane base
Coordinates 57° 30' 13.00" N, 134° 35' 6.00" W
Runways
Designator Length Width Surface ROPS
NW/SE 3048 m10,000 ft
274 m898.95 ft
WATER /


METAR
Observation PAGN 230356Z AUTO 03009KT 10SM CLR M01/M08 A3008 RMK AO2 SLP176 T10111078 FZRANO
Station Angoon
Date/Time 23 February 2019 03:56:00
Wind direction 30°
Wind speed 09 kts
Lowest cloud amount n/a
Temperature
Dew point
Humidity 60%
QNH hPa
Weather condition n/a

Maps

Terrain

Loading map...

Airport Layout

Loading map...


Accidents & Serious Incidents at or in vicinity of PAGN

None on SKYbrary